Regional Weather Roundup
Issued by NWS Upton, NY

Current Version | Previous Version | Graphics & Text | Print | Product List | Glossary Off
Versions: 1 2 3 4 5 6 7 8 9 10 11 12 13 14 15 16 17 18 19 20 21 22 23 24 25 26 27 28 29 30 31 32 33 34 35 36 37 38 39 40 41 42 43 44 45 46 47 48 49 50

000
ASUS41 KOKX 011605
RWROKX

REGIONAL WEATHER ROUNDUP
NATIONAL WEATHER SERVICE NEW YORK NY
1200 PM EDT MON SEP 01 2014

NOTE: "FAIR" INDICATES FEW OR NO CLOUDS BELOW 12,000 FEET WITH NO
SIGNIFICANT WEATHER AND/OR OBSTRUCTIONS TO VISIBILITY.

NYZ071-072-176-178-NJZ106-104-011700-
NEW YORK CITY METRO AREA


CITY           SKY/WX    TMP DP  RH WIND       PRES   REMARKS
CENTRAL PARK   PTSUNNY   86  68  54 VRB6      30.01F
LAGUARDIA APRT PTSUNNY   85  67  54 SW9       29.98F
KENNEDY INTL   PTSUNNY   82  72  71 SW8       30.00F
NEWARK/LIBERTY PTSUNNY   85  70  60 VRB7      29.98F
BRNX BOT. GARD   N/A     84  68  58 W6        30.00F
TETERBORO      MOSUNNY   85  69  58 SW9       29.97F
$$

NYZ177-179-078>081-011700-
LONG ISLAND NEW YORK

CITY           SKY/WX    TMP DP  RH WIND       PRES   REMARKS
FARMINGDALE    MOSUNNY   80  72  76 S7        30.00F
ISLIP          PTSUNNY   81  72  74 S7        29.98F
SHIRLEY        MOSUNNY   80  72  76 SW10      30.01S
WESTHAMPTON    SUNNY     79  70  74 SW13      30.02R
MONTAUK POINT    N/A     80  72  76 S6        30.01S
$$

NYZ052-065-067-011700-
HUDSON VALLEY

CITY           SKY/WX    TMP DP  RH WIND       PRES   REMARKS
WHITE PLAINS   PTSUNNY   81  71  71 S8        29.99F
NEWBURGH       PTSUNNY   81  72  74 SW9       30.01S
MONTGOMERY     PTSUNNY   84  70  62 S7        29.99S
POUGHKEEPSIE   PTSUNNY   83  70  64 SW3       29.97F
ALBANY         PTSUNNY   80  67  64 W6        29.98S
$$

NJZ001-105-106-008-010-013-015-019>022-104-011700-
NEW JERSEY

CITY           SKY/WX    TMP DP  RH WIND       PRES   REMARKS
NEWARK/LIBERTY PTSUNNY   85  70  60 VRB7      29.98F
TETERBORO      MOSUNNY   85  69  58 SW9       29.97F
CALDWELL       PTSUNNY   83  68  60 W5        30.00S
MORRISTOWN     CLOUDY    84  70  61 SW9       30.00S
SOMERVILLE     PTSUNNY   83  71  67 CALM      29.98F
LINDEN         PTSUNNY   87  74  64 S8        30.01S HX  96
SUSSEX         CLOUDY    82  69  64 SW5       30.01S
ANDOVER          N/A     80  69  69 SW6       30.02S
TRENTON        PTSUNNY   81  71  71 VRB3      30.01S
MILLVILLE      MOSUNNY   84  72  67 W6        30.01F
ATLANTIC CITY  PTSUNNY   83  72  69 SW6       30.02F
WRIGHTSTOWN    PTSUNNY   82  75  78 SW5       29.99F
TOMS RIVER     PTSUNNY   82  73  74 CALM      30.01F
BELMAR         CLOUDY    79  72  78 NW5       30.01F
$$

PAZ047>061-062-071-011700-
EASTERN PENNSYLVANIA

CITY           SKY/WX    TMP DP  RH WIND       PRES   REMARKS
PHILADELPHIA   PTSUNNY   82  73  74 SW6       30.01F
ALLENTOWN      PTSUNNY   84  69  60 W5        30.01F
SCRANTON       CLOUDY    78  68  71 SW6       30.02F
$$

CTZ002-004>006-009-010-012-RIZ004-006-007-MAZ004-011-015-011700-
SOUTHERN NEW ENGLAND
 IN CT

CITY           SKY/WX    TMP DP  RH WIND       PRES   REMARKS
BRADLEY INTL   PTSUNNY   82  68  62 S6        29.97F
HARTFORD       SUNNY     81  69  67 S6        29.97F
DANBURY        MOSUNNY   82  68  62 SW5       30.00F
WTRBRY/OXFORD  PTSUNNY   81  70  69 S7        30.03F
BRIDGEPORT     SUNNY     82  72  71 SW12      29.99S
MERIDEN        MOSUNNY   83  71  67 S6        29.98F
NEW HAVEN      PTSUNNY   81  72  74 SW9       29.99S
CHESTER        FAIR      81  72  74 SW6       30.01S
GROTON         MOSUNNY   78  72  81 SW9       29.99S
WILLIMANTIC    PTSUNNY   82  69  64 S3        29.99F

 IN RI

CITY           SKY/WX    TMP DP  RH WIND       PRES   REMARKS
PROVIDENCE     PTSUNNY   82  72  71 SE9       29.98F
BLOCK ISLAND   CLOUDY    75  70  83 SW14      30.01F
WESTERLY       MOSUNNY   79  71  76 SW8       30.00S

 IN MA

CITY           SKY/WX    TMP DP  RH WIND       PRES   REMARKS
BOSTON         MOSUNNY   84  67  56 SE8       29.95F
WORCESTER      SUNNY     79  65  62 VRB7      30.01F
WESTFIELD      MOSUNNY   83  70  64 SE5       29.97F
PROVINCETOWN   SUNNY     79  73  83 SW12      29.98S
NANTUCKET      CLOUDY    73  69  87 SW10      30.00F
$$

ANZ330-335-338-340-345-350-353-355-011700-
COASTAL MARINE OBSERVATIONS


STATION/POSITION TIME  SKY/WX   TEMP    WIND        PRES    VSBY  WAVE
                                AIR SEA DIR/SP/G                  HT/PER
                 (UTC)          (F)     (DEG/KT/KT) (MB)    (MI)  (FT/S)
NY HARB ENTRANCE NOT AVBL
4S FIRE IS       NOT AVBL
23SW MTP         1600                                 N/A           4/ 6
HUDSON CANYON    1600            74 74  230/  8/ 10 1016.4          4/ 6
EXECUTION ROCKS  1600            83 76  220/  6/  6   N/A
WESTERN LI SOUND 1600            79     240/  2/  4   N/A           1
CENTRAL LI SOUND 1500            74 74  270/  4/  6   N/A           1
EASTERN LI SOUND 1500            75 71  240/  4/  4   N/A
ROBBINS REEF     1600            77     150/ 12/ 14   N/A
$$


>>>>>>>>>>>>>>>>>>>>>>>>>>>> KEY <<<<<<<<<<<<<<<<<<<<<<<<<<<
>                                                          <
>     SKY/WX - SKY CONDITION/PRESENT WEATHER               <
>     TMP    - TEMPERATURE IN FAHRENHEIT                   <
>     DP     - DEWPOINT IN FAHRENHEIT                      <
>     RH     - RELATIVE HUMIDITY IN PERCENT                <
>     WIND   - DIRECTION AND SPEED IN MPH                  <
>     PRES   - MEAN SEA LEVEL PRESSURE IN INCHES OF HG     <
>     WCI    - WIND CHILL INDEX                            <
>     VSB    - VISIBILITY IN MILES                         <
>     HX     - HEAT INDEX                                  <
>     TC     - TEMPERATURE IN CELSIUS                      <
>     VRB    - VARIABLE WIND DIRECTION                     <
>                                                          <
>>>>>>>>>>>>>>>>>>>>>>>>>>>> KEY <<<<<<<<<<<<<<<<<<<<<<<<<<<




USA.gov is the U.S. government's official web portal to all federal, state and local government web resources and services.